Simultaneous Nadir Overpasses (SNOs) Predictions

Prediction of SNOs between GOES-17 and METOP-C Satellite Orbit:

Table of predicted SNOs for the next 14.0 days since TLE Epoch: 7/18/2020
Index Date Time (GOES-17) GOES-17 Lat,Lon METOP-C Lat,Lon Distance(km) Time Diff (sec)
1 07/18/2020 06:35:20 -0.00,-137.19 0.34,-135.67 173.70 80
2 07/19/2020 18:51:32 0.00,-137.19 0.67,-140.24 346.56 80
3 07/20/2020 18:33:32 0.00,-137.19 -0.44,-135.24 222.21 80
4 07/22/2020 06:49:52 0.01,-137.18 -0.60,-139.83 302.58 80
5 07/23/2020 06:31:52 0.02,-137.17 0.52,-134.84 265.69 80
6 07/24/2020 18:48:05 -0.02,-137.16 0.49,-139.40 255.70 80
7 07/25/2020 18:30:05 -0.02,-137.15 -0.62,-134.41 312.52 80
8 07/27/2020 06:46:24 0.02,-137.14 -0.42,-139.00 212.80 80
9 07/28/2020 06:28:25 0.02,-137.12 0.70,-134.00 355.03 80
10 07/29/2020 18:44:37 -0.02,-137.10 0.31,-138.57 167.41 80
11 07/30/2020 18:23:58 -0.00,-137.08 -0.81,-133.58 400.22 80
